[[{"header":{"parameterUnit":"m.s-1","parameterCategory":1,"la1":30.2991,"la2":30.254,"lo1":-89.0895,"lo2":-89.0444,"dy":0.0017,"dx":0.0017,"nx":28,"ny":28,"refTime":"2024-02-13T03:00:00:Z","depth":0,"parameterNumber":2,"parameterNumberName":"U-component_of_WINDS"},"data":[0,0,0,0,0,0,0,0,0,0,0,0,0,0,0,0,0,0,0,0,0,0,0,0,0,0,0,0,0,0,0,0,0,0,0,0,0,0,0,0,0,0,0,0,0,0,0,0,0,0,0,0,0,0,0,0,0,0,-0.3743,-0.3744,0,-0.3787,-0.3788,-0.3788,-0.3768,-0.3767,-0.3766,-0.3765,-0.3811,-0.3813,-0.3816,0,0,0,0,0,0,0,0,0,0,0,0,0,-0.3643,-0.3645,-0.3743,-0.3744,-0.3744,-0.3787,-0.3788,-0.3788,-0.3768,-0.3767,-0.3765,-0.3764,-0.381,-0.3813,-0.3816,0,0,0,0,0,0,0,0,0,0,0,0,0,-0.3687,-0.3646,-0.3743,-0.3739,-0.3739,-0.3787,-0.3788,-0.3788,-0.3768,-0.3767,-0.3765,-0.3763,-0.3809,-0.3813,-0.3816,-0.387,0,0,-0.3827,-0.3828,0,0,0,0,0,0,0,0,-0.3684,-0.3691,-0.3739,-0.3739,-0.374,-0.377,-0.3769,-0.3816,-0.3769,-0.3757,-0.3765,-0.3763,-0.3799,-0.3803,-0.3815,-0.3873,-0.3875,-0.3827,-0.3829,-0.383,-0.3831,0,0,0,0,0,0,0,-0.3681,-0.3689,-0.376,-0.374,-0.374,-0.3736,-0.374,-0.3778,-0.3787,-0.3758,-0.3757,-0.3762,-0.3799,-0.3812,-0.3816,-0.3875,-0.3827,-0.383,-0.3832,-0.3833,-0.3981,-0.3983,0,0,0,0,0,0,-0.3678,-0.3686,-0.3759,-0.3762,-0.3707,-0.3739,-0.3744,-0.3762,-0.3786,-0.3789,-0.3764,-0.3761,-0.3807,-0.3812,-0.3818,-0.3884,-0.383,-0.3834,-0.3835,-0.3979,-0.3982,-0.3984,0,0,0,0,0,0,-0.3676,-0.3685,-0.3757,-0.3724,-0.3733,-0.3743,-0.3763,-0.3764,-0.3777,-0.3791,-0.3792,-0.3775,-0.3806,-0.3813,-0.3858,-0.3885,-0.3835,-0.3838,-0.3977,-0.398,-0.3983,-0.4017,0,0,0,0,0,0,-0.3673,-0.3684,-0.3705,-0.3724,-0.3734,-0.3796,-0.3765,-0.3766,-0.3783,-0.378,-0.3802,-0.3804,-0.3805,-0.3853,-0.3861,-0.3889,-0.3841,-0.3975,-0.3979,-0.3982,-0.4013,-0.4021,-0.4027,0,0,0,0,0,-0.367,-0.3712,-0.3706,-0.3715,-0.376,-0.3798,-0.3804,-0.3804,-0.3785,-0.3806,-0.3815,-0.3803,-0.3881,-0.3858,-0.3867,-0.3896,-0.3973,-0.3977,-0.3982,-0.401,-0.4019,-0.4027,0,0,0,0,0,0,-0.3696,-0.3715,-0.3708,-0.3758,-0.3776,-0.3794,-0.3821,-0.3813,-0.3837,-0.3834,-0.3833,-0.3838,-0.3885,-0.3895,-0.3869,-0.3951,-0.3924,-0.393,-0.3943,-0.3951,-0.3958,-0.3955,-0.3844,0,0,0,0,0,-0.3708,-0.3736,-0.3751,-0.3794,-0.3804,-0.3811,-0.3827,-0.3826,-0.3845,-0.3853,-0.3865,-0.3885,-0.3914,-0.3933,-0.396,-0.4014,-0.402,-0.4039,-0.4046,-0.4051,-0.4057,-0.4088,-0.4098,-0.3998,-0.3998,-0.3998,0,0,-0.3732,-0.3746,-0.3764,-0.38,-0.3814,-0.3845,-0.3818,-0.3851,-0.3874,-0.3858,-0.3902,-0.3911,-0.3933,-0.3984,-0.4006,-0.3993,-0.4086,-0.4057,-0.4061,-0.4064,-0.4094,-0.4103,-0.4111,-0.4001,-0.4,-0.4,0,0,-0.3792,-0.3805,-0.3843,-0.3857,-0.3879,-0.3884,-0.3893,-0.3912,-0.3918,-0.3962,-0.3951,-0.3978,-0.4028,-0.4044,-0.4059,-0.4127,-0.4118,-0.4135,-0.4171,-0.4201,-0.4209,-0.4216,-0.4241,-0.425,-0.4141,-0.4141,-0.4141,0,-0.382,-0.3865,-0.3863,-0.3898,-0.3914,-0.3901,-0.394,-0.3955,-0.3984,-0.3997,-0.3981,-0.4044,-0.4058,-0.4112,-0.4129,-0.4141,-0.4152,-0.4134,-0.4208,-0.4215,-0.4221,-0.4246,-0.4255,-0.4143,-0.4143,-0.4143,-0.4143,0,-0.3899,-0.393,-0.3958,-0.3988,-0.4007,-0.4044,-0.4048,-0.4068,-0.4065,-0.4071,-0.4117,-0.4133,-0.4163,-0.4176,-0.4173,-0.4231,-0.4222,-0.4207,-0.4181,-0.4233,-0.4256,-0.4265,-0.4146,-0.4146,-0.4145,-0.4144,0,0,-0.3977,-0.4005,-0.4016,-0.4029,-0.4053,-0.4078,-0.4114,-0.4144,-0.4162,-0.4183,-0.4214,-0.4257,-0.4243,-0.426,-0.4259,-0.4285,-0.434,-0.4267,-0.4268,-0.4282,-0.4406,-0.4418,-0.4429,-0.4333,-0.4335,-0.4336,-0.4405,0,-0.404,-0.4104,-0.4103,-0.4162,-0.4193,-0.4181,-0.4212,-0.4231,-0.4238,-0.4265,-0.4272,-0.4303,-0.4282,-0.4293,-0.4318,-0.4328,-0.4365,-0.4322,-0.4363,-0.4365,-0.436,-0.4441,-0.4453,-0.4517,-0.4413,-0.4415,-0.4416,0,-0.4123,-0.4147,-0.4209,-0.4229,-0.4241,-0.427,-0.4298,-0.4324,-0.4345,-0.4348,-0.4367,-0.4362,-0.44,-0.4371,-0.4424,-0.4395,-0.4412,-0.4419,-0.4422,-0.4427,-0.4395,-0.4449,-0.4537,-0.4548,-0.443,-0.4429,-0.4428,0,-0.4176,-0.4223,-0.4267,-0.4279,-0.4303,-0.4324,-0.4335,-0.4354,-0.4372,-0.4397,-0.4409,-0.4438,-0.4454,-0.4476,-0.4479,-0.4458,-0.4533,-0.4504,-0.4538,-0.4538,-0.4556,-0.4555,-0.4649,-0.4564,-0.4564,-0.4564,-0.4563,0,-0.4247,-0.4286,-0.4291,-0.4319,-0.4362,-0.4361,-0.4405,-0.4414,-0.4431,-0.4461,-0.4451,-0.4479,-0.4481,-0.451,-0.4512,-0.4556,-0.4563,-0.4568,-0.4568,-0.457,-0.4569,-0.4582,-0.4578,-0.4566,-0.4566,-0.4565,-0.4565,0,-0.4314,-0.4319,-0.4366,-0.4385,-0.4391,-0.4423,-0.4439,-0.4466,-0.4471,-0.4509,-0.4518,-0.4527,-0.4561,-0.4565,-0.4604,-0.4606,-0.466,-0.4655,-0.4653,-0.4653,-0.4687,-0.4684,-0.4794,-0.4809,-0.4712,-0.4713,-0.4714,0,-0.436,-0.439,-0.4412,-0.4431,-0.4444,-0.4474,-0.4493,-0.4493,-0.4514,-0.454,-0.4564,-0.4596,-0.4622,-0.4676,-0.4687,-0.4717,-0.4714,-0.475,-0.4718,-0.4719,-0.4716,-0.4715,-0.4719,-0.4757,-0.4758,-0.4759,-0.4759,0,-0.4442,-0.4443,-0.4471,-0.4499,-0.4522,-0.4545,-0.4566,-0.4582,-0.4586,-0.4609,-0.4643,-0.4663,-0.4703,-0.4736,-0.4766,-0.4778,-0.477,-0.4769,-0.4779,-0.4781,-0.478,-0.4782,-0.4672,-0.4767,-0.4766,-0.4766,-0.4765,-0.4765,-0.4501,-0.4528,-0.4548,-0.4579,-0.4595,-0.4615,-0.4642,-0.4651,-0.4679,-0.4712,-0.471,-0.4748,-0.4769,-0.4809,-0.4823,-0.4853,-0.4841,-0.4855,-0.4858,-0.4862,-0.4866,-0.4773,-0.4858,-0.4858,-0.4858,-0.4857,-0.4857,0,-0.4584,-0.4596,-0.4625,-0.4655,-0.468,-0.4669,-0.4693,-0.4715,-0.4748,-0.4768,-0.4794,-0.4834,-0.4866,-0.4879,-0.4911,-0.4932,-0.4929,-0.4941,-0.494,-0.4943,-0.4874,-0.4863,-0.4942,-0.4942,-0.4942,-0.4942,-0.4942,-0.4942,-0.463,-0.4674,-0.4678,-0.4731,-0.4743,-0.478,-0.4795,-0.4814,-0.483,-0.4875,-0.4901,-0.491,-0.4928,-0.496,-0.4989,-0.4993,-0.5005,-0.5019,-0.502,-0.4956,-0.4948,-0.4939,-0.4929,-0.5021,-0.5021,-0.5087,-0.5087,-0.5088]},{"header":{"parameterUnit":"m.s-1","parameterCategory":1,"la1":30.2991,"la2":30.254,"lo1":-89.0895,"lo2":-89.0444,"dy":0.0017,"dx":0.0017,"nx":28,"ny":28,"refTime":"2024-02-13T03:00:00:Z","depth":0,"parameterNumber":3,"parameterNumberName":"V-component_of_WINDS"},"data":[0,0,0,0,0,0,0,0,0,0,0,0,0,0,0,0,0,0,0,0,0,0,0,0,0,0,0,0,0,0,0,0,0,0,0,0,0,0,0,0,0,0,0,0,0,0,0,0,0,0,0,0,0,0,0,0,0,0,-3.4054,-3.4056,0,-3.418,-3.4181,-3.4183,-3.4153,-3.4151,-3.4149,-3.4146,-3.4272,-3.4277,-3.4282,0,0,0,0,0,0,0,0,0,0,0,0,0,-3.3786,-3.3791,-3.4054,-3.4056,-3.4057,-3.418,-3.4182,-3.4183,-3.4154,-3.4151,-3.4148,-3.4145,-3.427,-3.4276,-3.4283,0,0,0,0,0,0,0,0,0,0,0,0,0,-3.3906,-3.3792,-3.4054,-3.4057,-3.4059,-3.4179,-3.4182,-3.4184,-3.4154,-3.4151,-3.4147,-3.4144,-3.4267,-3.4276,-3.4284,-3.4407,0,0,-3.4309,-3.4313,0,0,0,0,0,0,0,0,-3.3899,-3.3916,-3.4055,-3.4057,-3.4059,-3.4147,-3.4133,-3.4258,-3.4155,-3.4118,-3.4146,-3.4142,-3.4233,-3.4244,-3.4275,-3.4413,-3.4418,-3.431,-3.4315,-3.4319,-3.4321,0,0,0,0,0,0,0,-3.3891,-3.391,-3.4104,-3.4057,-3.406,-3.4052,-3.4065,-3.4156,-3.4194,-3.4121,-3.4119,-3.4135,-3.4233,-3.4267,-3.4278,-3.442,-3.431,-3.4317,-3.4322,-3.4326,-3.4667,-3.4671,0,0,0,0,0,0,-3.3881,-3.3903,-3.41,-3.4107,-3.3969,-3.406,-3.4074,-3.4123,-3.4193,-3.42,-3.4138,-3.4133,-3.4255,-3.4268,-3.4282,-3.4432,-3.4319,-3.4326,-3.4331,-3.4663,-3.4668,-3.4672,0,0,0,0,0,0,-3.3876,-3.3899,-3.4095,-3.4005,-3.4029,-3.4068,-3.4123,-3.4127,-3.4161,-3.4206,-3.4212,-3.4166,-3.4252,-3.427,-3.4377,-3.4436,-3.433,-3.4338,-3.4658,-3.4664,-3.467,-3.4733,0,0,0,0,0,0,-3.3868,-3.3897,-3.3945,-3.4006,-3.4034,-3.4188,-3.4126,-3.4132,-3.4176,-3.4171,-3.4233,-3.424,-3.4251,-3.4365,-3.4385,-3.4446,-3.4344,-3.4653,-3.4661,-3.4668,-3.4725,-3.474,-3.4753,0,0,0,0,0,-3.3858,-3.3956,-3.3947,-3.3971,-3.4095,-3.4192,-3.4208,-3.4219,-3.4181,-3.4229,-3.4258,-3.4238,-3.4426,-3.4376,-3.4399,-3.4462,-3.4649,-3.4659,-3.4667,-3.4719,-3.4737,-3.4752,0,0,0,0,0,0,-3.3899,-3.3964,-3.3955,-3.4076,-3.4129,-3.4187,-3.4247,-3.4237,-3.4301,-3.4293,-3.4303,-3.4318,-3.4427,-3.4455,-3.4398,-3.4586,-3.4532,-3.4546,-3.4564,-3.4581,-3.4594,-3.4585,-3.4351,0,0,0,0,0,-3.3922,-3.3996,-3.4049,-3.4151,-3.4178,-3.4208,-3.4251,-3.4255,-3.431,-3.4331,-3.4368,-3.442,-3.4491,-3.4538,-3.4605,-3.4729,-3.4743,-3.4785,-3.4798,-3.4809,-3.4821,-3.489,-3.4909,-3.4702,-3.4702,-3.4702,0,0,-3.397,-3.4015,-3.4061,-3.416,-3.4201,-3.4277,-3.4227,-3.4309,-3.4365,-3.4343,-3.4447,-3.4475,-3.4535,-3.4651,-3.4704,-3.4678,-3.4882,-3.4821,-3.4829,-3.4835,-3.4901,-3.4921,-3.4938,-3.4708,-3.4707,-3.4706,0,0,-3.4097,-3.4139,-3.4229,-3.4272,-3.4336,-3.4356,-3.4377,-3.4437,-3.4456,-3.4561,-3.4546,-3.4612,-3.4734,-3.4778,-3.4815,-3.4961,-3.4946,-3.4983,-3.5053,-3.512,-3.5137,-3.5151,-3.5203,-3.5222,-3.4994,-3.4995,-3.4995,0,-3.4149,-3.4264,-3.4276,-3.436,-3.4404,-3.439,-3.4481,-3.4521,-3.4603,-3.4634,-3.4604,-3.4758,-3.4796,-3.4923,-3.4959,-3.499,-3.5015,-3.4975,-3.5134,-3.5148,-3.5162,-3.5212,-3.5232,-3.4999,-3.4998,-3.4998,-3.4997,0,-3.4324,-3.4404,-3.4469,-3.4551,-3.4602,-3.4689,-3.4714,-3.4764,-3.4765,-3.4788,-3.4894,-3.4941,-3.5018,-3.5048,-3.5049,-3.5176,-3.5158,-3.5131,-3.5077,-3.5186,-3.5233,-3.5252,-3.5005,-3.5003,-3.5002,-3.5001,0,0,-3.4479,-3.4568,-3.4592,-3.4629,-3.47,-3.4761,-3.4848,-3.4925,-3.4968,-3.5026,-3.5099,-3.5203,-3.5179,-3.5222,-3.5227,-3.5286,-3.5399,-3.5252,-3.5253,-3.5278,-3.5542,-3.5563,-3.5585,-3.539,-3.5393,-3.5396,-3.5538,0,-3.4612,-3.4766,-3.4781,-3.4919,-3.4993,-3.4981,-3.5057,-3.5108,-3.5132,-3.5198,-3.5223,-3.5298,-3.526,-3.5286,-3.5344,-3.5373,-3.5452,-3.5363,-3.5457,-3.546,-3.5443,-3.5609,-3.563,-3.5762,-3.5556,-3.5559,-3.5561,0,-3.4788,-3.4853,-3.5,-3.5061,-3.5093,-3.5161,-3.5233,-3.5297,-3.5354,-3.5368,-3.5417,-3.5415,-3.5504,-3.5447,-3.5569,-3.5508,-3.5547,-3.5567,-3.5573,-3.5582,-3.5517,-3.5623,-3.5804,-3.5823,-3.5591,-3.5588,-3.5586,0,-3.4887,-3.5011,-3.5115,-3.5147,-3.5222,-3.527,-3.5303,-3.5357,-3.5403,-3.5466,-3.5496,-3.5569,-3.5608,-3.5664,-3.5681,-3.5638,-3.5803,-3.5747,-3.5816,-3.5816,-3.5851,-3.5848,-3.6041,-3.5876,-3.5876,-3.5875,-3.5875,0,-3.5035,-3.5125,-3.5161,-3.5224,-3.5325,-3.534,-3.5439,-3.5469,-3.5518,-3.5587,-3.558,-3.5645,-3.5664,-3.5732,-3.5745,-3.5845,-3.5862,-3.5875,-3.5878,-3.5876,-3.5875,-3.5902,-3.5893,-3.5881,-3.5879,-3.5878,-3.5877,0,-3.5162,-3.519,-3.5302,-3.5364,-3.5382,-3.5453,-3.5506,-3.5567,-3.5591,-3.5678,-3.57,-3.5736,-3.5816,-3.5839,-3.5934,-3.5943,-3.606,-3.6054,-3.6042,-3.6042,-3.611,-3.6103,-3.6326,-3.6356,-3.6172,-3.6173,-3.6175,0,-3.5254,-3.5323,-3.5394,-3.5441,-3.5476,-3.5551,-3.5599,-3.5617,-3.5667,-3.5739,-3.5791,-3.5871,-3.5935,-3.6063,-3.6097,-3.617,-3.6166,-3.6239,-3.6177,-3.6173,-3.6167,-3.6163,-3.617,-3.6251,-3.6253,-3.6254,-3.6255,0,-3.5415,-3.5426,-3.5496,-3.5572,-3.563,-3.569,-3.5747,-3.5785,-3.5811,-3.5867,-3.595,-3.6,-3.6099,-3.6177,-3.6252,-3.6284,-3.6275,-3.6275,-3.6295,-3.6294,-3.6284,-3.6291,-3.6074,-3.627,-3.6268,-3.6267,-3.6266,-3.6266,-3.5528,-3.559,-3.565,-3.5728,-3.5774,-3.5828,-3.5889,-3.5922,-3.5992,-3.6074,-3.608,-3.617,-3.6227,-3.6326,-3.6363,-3.6432,-3.641,-3.6439,-3.6446,-3.6453,-3.6459,-3.6273,-3.6446,-3.6445,-3.6445,-3.6445,-3.6444,0,-3.5689,-3.5728,-3.58,-3.5882,-3.5944,-3.5932,-3.5995,-3.6047,-3.6127,-3.6181,-3.6245,-3.6341,-3.6417,-3.6459,-3.6535,-3.6583,-3.658,-3.6602,-3.6599,-3.6607,-3.6474,-3.645,-3.6603,-3.6603,-3.6603,-3.6603,-3.6603,-3.6603,-3.5781,-3.5885,-3.5903,-3.603,-3.6067,-3.6156,-3.6194,-3.6244,-3.6288,-3.6395,-3.646,-3.6487,-3.6536,-3.6616,-3.6686,-3.6696,-3.6725,-3.6749,-3.6757,-3.6632,-3.6616,-3.66,-3.6577,-3.6755,-3.6755,-3.6884,-3.6885,-3.6886]}]]